Tracking 18987 objects as of 25-Feb-2018
HD Live streaming from Space Station
objects crossing your sky now

SL-24 R/B

Track SL-24 R/B now!
10-day predictions


NORAD ID: 35688
Int'l Code: 2009-041H
Perigee: 675.5 km
Apogee: 1,307.7 km
Inclination: 98.1 °
Period: 104.8 minutes
Semi major axis: 7362 km
RCS: 6.1417 m2 (large)
Launch date: July 29, 2009
Source: Commonwealth of Independent States (former USSR) (CIS)
Launch site: TYURATAM MISSILE AND SPACE COMPLEX (TTMTR)

Note: This is a ROCKET BODY
aabbcc
Your satellite tracking list
Your tracking list is empty




NASA's NSSDC Master Catalog

Two Line Element Set (TLE):
1 35688U 09041H   18055.49197747 -.00000027 +00000-0 +70066-5 0  9995
2 35688 098.0827 255.5678 0429310 305.3802 079.1898 13.74215398430017
Source of the keplerian elements: AFSPC